Regional Weather Roundup
Issued by NWS

Home | Current Version | Previous Version | Graphics & Text | Print | Product List | Glossary On
Versions: 1 2 3 4 5 6 7 8 9 10 11 12 13 14 15 16 17 18 19 20 21 22 23 24 25 26 27 28 29 30 31 32 33 34 35 36 37 38 39 40 41 42 43 44 45 46 47 48 49 50
000
ASUS45 KBOI 231910
RWRID
WEATHER ROUNDUP FOR IDAHO
NATIONAL WEATHER SERVICE BOISE ID
100 PM MDT WED JUL 23 2014

NOTE: "FAIR" INDICATES FEW OR NO CLOUDS BELOW 12000 FEET
WITH NO SIGNIFICANT WEATHER AND/OR OBSTRUCTIONS TO VISIBILITY

IDZ012-014-232000-
SOUTHWEST IDAHO


CITY           SKY/WX    TMP DP  RH WIND       PRES   REMARKS
BOISE          SUNNY     87  44  22 VRB3      30.02F
CALDWELL       SUNNY     82  54  36 S3        30.03F
MOUNTAIN HOME  MOSUNNY   87  42  20 CALM      30.02F
$$

IDZ016-017-232000-
SOUTHCENTRAL IDAHO


CITY           SKY/WX    TMP DP  RH WIND       PRES   REMARKS
BURLEY         MOSUNNY   84  50  30 N5        30.10F
JEROME         MOSUNNY   83  53  35 VRB3      30.11F
TWIN FALLS     MOSUNNY   85  51  31 NW8       30.11F
$$

IDZ019>023-232000-
SOUTHEAST IDAHO


CITY           SKY/WX    TMP DP  RH WIND       PRES   REMARKS
IDAHO FALLS    MOSUNNY   85  46  25 S9        30.17F
POCATELLO      SUNNY     87  48  25 VRB6      30.14F
REXBURG        SUNNY     83  47  28 SW8       30.18F
$$

IDZ006-010-011-018-031-032-232000-
CENTRAL IDAHO MOUNTAINS


CITY           SKY/WX    TMP DP  RH WIND       PRES   REMARKS
MCCALL         SUNNY     77  47  34 S10G16    30.12F
HAILEY         PTSUNNY   79  55  44 SE12      30.20F
STANLEY          N/A     77  43  29 S3        30.23F
SALMON         MOSUNNY   75  52  43 NW3       30.09F
CHALLIS        MOSUNNY   78  46  32 N3        30.16F
$$

IDZ002-004-006-007-026-232000-
NORTHERN IDAHO


CITY           SKY/WX    TMP DP  RH WIND       PRES   REMARKS
LEWISTON       SUNNY     86  57  37 E14       29.87F
LOWELL           N/A     89  58  34 CALM      29.87F
COEUR D`ALENE  SUNNY     81  54  39 E5        29.94F
MULLAN PASS    SUNNY     67  51  56 VRB7      30.16F
$$


USA.gov is the U.S. government's official web portal to all federal, state and local government web resources and services.